Regional Weather Roundup
Issued by NWS

Home | Current Version | Previous Version | Graphics & Text | Print | Product List | Glossary Off
Versions: 1 2 3 4 5 6 7 8 9 10 11 12 13 14 15 16 17 18 19 20 21 22 23 24 25 26 27 28 29 30 31 32 33 34 35 36 37 38 39 40 41 42 43 44 45 46 47 48 49 50

000
ASUS43 KMKX 231811
RWRWI

WISCONSIN REGIONAL WEATHER ROUNDUP
NATIONAL WEATHER SERVICE MILWAUKEE/SULLIVAN WI
100 PM CDT WED APR 23 2014

NOTE: "FAIR" INDICATES FEW OR NO CLOUDS BELOW 12,000 FEET WITH NO
SIGNIFICANT WEATHER AND/OR OBSTRUCTIONS TO VISIBILITY.

WIZ001-002-006>008-014>016-023>028-231900-
NORTHWEST WISCONSIN

CITY           SKY/WX    TMP DP  RH WIND       PRES   REMARKS
SUPERIOR ARPT  FAIR      43  30  59 NE9       30.12F
6HR MIN TEMP:  32; 6HR MAX TEMP:  43;

ASHLAND        FAIR      50  29  44 NE9       30.13F
6HR MIN TEMP:  28; 6HR MAX TEMP:  50;

HAYWARD        FAIR      51  23  33 S10       30.10F
6HR MIN TEMP:  28; 6HR MAX TEMP:  52;

SIREN          FAIR      50  25  38 SE12      30.09F
6HR MIN TEMP:  30; 6HR MAX TEMP:  50;

RICE LAKE      FAIR      47  26  43 SE10      30.13F
LADYSMITH      FAIR      50  25  37 SE8       30.14F
6HR MIN TEMP:  33; 6HR MAX TEMP:  51;

EAU CLAIRE     FAIR      50  26  39 E12       30.10F
6HR MIN TEMP:  37; 6HR MAX TEMP:  50;

MENOMONIE      MOCLDY    50  25  37 E12       30.11F
6HR MIN TEMP:  34; 6HR MAX TEMP:  50;

NEW RICHMOND   PTSUNNY   50  28  41 SE8G17    30.08F
6HR MIN TEMP:  37; 6HR MAX TEMP:  50;

OSCEOLA        FAIR      49  28  44 SE14G20   30.11F
$$

WIZ003>005-009-010-017-018-231900-
NORTH CENTRAL WISCONSIN

CITY           SKY/WX    TMP DP  RH WIND       PRES   REMARKS
WOODRUFF       SUNNY     52  22  30 SE6       30.12F
6HR MIN TEMP:  29; 6HR MAX TEMP:  52;

RHINELANDER    SUNNY     48  21  34 E7        30.13F
6HR MIN TEMP:  26; 6HR MAX TEMP:  49;

EAGLE RIVER    PTSUNNY   49  16  26 E6        30.12F
LAND O LAKES   PTSUNNY   49  18  29 SE5       30.13F
6HR MIN TEMP:  23; 6HR MAX TEMP:  49;

PHILLIPS       FAIR      50  25  37 SE6       30.12F
6HR MIN TEMP:  26; 6HR MAX TEMP:  50;

TOMAHAWK       SUNNY     52  23  32 CALM      30.12F
6HR MIN TEMP:  25; 6HR MAX TEMP:  52;

MEDFORD        FAIR      46  26  46 SE8       30.14F
MERRILL        SUNNY     50  24  36 SW5       30.13F
6HR MIN TEMP:  26; 6HR MAX TEMP:  50;

$$

WIZ029-030-035-036-043>047-231900-
CENTRAL WISCONSIN

CITY           SKY/WX    TMP DP  RH WIND       PRES   REMARKS
WAUSAU         FAIR      48  22  35 SW6       30.13F
6HR MIN TEMP:  29; 6HR MAX TEMP:  49; 6HR PCP: TRACE;

MOSINEE        SUNNY     46  23  39 SE8       30.16F
MARSHFIELD     FAIR      49  24  37 SE12      30.13F
6HR MIN TEMP:  32; 6HR MAX TEMP:  49;

STEVENS POINT  FAIR      46  22  37 SE6       30.16F
6HR MIN TEMP:  29; 6HR MAX TEMP:  47;

WAUPACA        FAIR      52  21  30 E6        30.18F
WAUTOMA        FAIR      51  23  33 E9        30.17F
6HR MIN TEMP:  29; 6HR MAX TEMP:  51;

WISC RAPIDS    FAIR      50  21  32 E9        30.16F
6HR MIN TEMP:  28; 6HR MAX TEMP:  50;

CAMP DOUGLAS   CLOUDY    52  23  32 N1        30.13F
$$

WIZ011>013-019>022-031-037>040-048>050-231900-
NORTHEAST WISCONSIN

CITY           SKY/WX    TMP DP  RH WIND       PRES   REMARKS
ANTIGO         MOSUNNY   47  23  38 SE8       30.15S
6HR MIN TEMP:  29; 6HR MAX TEMP:  47;

STURGEON BAY   PTSUNNY   45  19  36 N6        30.19F
6HR MIN TEMP:  30; 6HR MAX TEMP:  45;

GREEN BAY      MOSUNNY   47  24  40 NE10      30.19F
6HR MIN TEMP:  32; 6HR MAX TEMP:  47;

MANITOWOC      PTSUNNY   46  22  38 N9        30.19F
6HR MIN TEMP:  33; 6HR MAX TEMP:  46;

APPLETON       PTSUNNY   46  21  36 CALM      30.18S
CLINTONVILLE   MOSUNNY   48  23  37 SE6       30.18S
OSHKOSH        PTSUNNY   47  23  38 E5        30.18S
6HR MIN TEMP:  36; 6HR MAX TEMP:  47;

$$

WIZ032>034-041-042-053>061-231900-
SOUTHWEST WISCONSIN

CITY           SKY/WX    TMP DP  RH WIND       PRES   REMARKS
LA CROSSE      PTSUNNY   50  29  44 S10       30.10F
6HR MIN TEMP:  37; 6HR MAX TEMP:  51;

SPARTA         FAIR      53  22  29 E3        30.14F
VIROQUA        FAIR      49  25  39 SE12G18   30.10F
6HR MIN TEMP:  36; 6HR MAX TEMP:  49;

BOSCOBEL       FAIR      52  27  38 CALM      30.13F
6HR MIN TEMP:  31; 6HR MAX TEMP:  52;

PRAIRIE DU CHI CLOUDY    49  28  44 E9        30.12F
PLATTEVILLE    FAIR      51  28  41 E10       30.13F
6HR MIN TEMP:  34; 6HR MAX TEMP:  51;

$$

WIZ056-057-062-063-064-067-068-231900-
SOUTH CENTRAL WISCONSIN

CITY           SKY/WX    TMP DP  RH WIND       PRES   REMARKS
BARABOO/DELLS  FAIR      52  23  33 E5        30.13F
6HR MIN TEMP:  31; 6HR MAX TEMP:  52;

LONE ROCK      PTSUNNY   53  26  35 E8        30.13F
6HR MIN TEMP:  32; 6HR MAX TEMP:  53;

WATERTOWN      SUNNY     51  28  42 SE8       30.15F
6HR MIN TEMP:  31; 6HR MAX TEMP:  51;

MADISON        PTSUNNY   51  27  39 S5        30.15F
6HR MIN TEMP:  32; 6HR MAX TEMP:  52;

MIDDLETON      FAIR      53  22  30 SE8       30.15F
6HR MIN TEMP:  32; 6HR MAX TEMP:  53;

MONROE         FAIR      51  25  36 E8        30.13F
6HR MIN TEMP:  34; 6HR MAX TEMP:  51;

JANESVILLE     SUNNY     54  25  32 SE3       30.15F
$$

WIZ051-052-058>065-066-070>072-231900-
SOUTHEAST WISCONSIN

CITY           SKY/WX    TMP DP  RH WIND       PRES   REMARKS
MILWAUKEE      PTSUNNY   43  26  51 E6        30.20S
6HR MIN TEMP:  36; 6HR MAX TEMP:  44;

WAUKESHA       NOT AVBL
MILWAUKEE/TIMM SUNNY     45  21  39 E7        30.20S
RACINE         SUNNY     45  26  47 NE8       30.20F
6HR MIN TEMP:  36; 6HR MAX TEMP:  45;

BURLINGTON     SUNNY     48  24  39 SE7       30.17S
6HR MIN TEMP:  26; 6HR MAX TEMP:  49;

KENOSHA        SUNNY     46  27  47 E13       30.18F
6HR MIN TEMP:  33; 6HR MAX TEMP:  47;

FOND DU LAC    PTSUNNY   51  27  39 NE7       30.17S
6HR MIN TEMP:  30; 6HR MAX TEMP:  51;

SHEBOYGAN      PTSUNNY   45  24  43 E7        30.19R
6HR MIN TEMP:  33; 6HR MAX TEMP:  46;

WEST BEND      PTSUNNY   46  23  39 E7        30.17S
JUNEAU         MOSUNNY   50  19  29 E7        30.17S
6HR MIN TEMP:  32; 6HR MAX TEMP:  51;

$$

LSZ147-162-231900-
LAKE SUPERIOR

STATION/POSITION TIME  TEMP    WIND        PRES    WAVE
                       AIR SEA DIR/SP/G            HT/PER
                 (UTC) (F)     (DEG/KT/KT) (MB)    (FT/S)
DEVILS ISLAND    1800   38      90/  8/  9 1021.6F
PORT WING        1700   35     340/  4/  6 1021.0S
SAXON HARBOR     1700             CALM     1021.0S
$$

LMZ867-665-643>646-231900-
LAKE MICHIGAN

STATION/POSITION TIME  TEMP    WIND        PRES    WAVE
                       AIR SEA DIR/SP/G            HT/PER
                 (UTC) (F)     (DEG/KT/KT) (MB)    (FT/S)
NORTHPORT PIER   1700   37     340/  2/  4 1022.7R
SISTER BAY       1708   41     360/ 12/ 13   N/A
KEWAUNEE LAKESHO 1700   38      50/  7/ 10 1023.3R
SHEBOYGAN LAKESH 1800   36      40/  6/  7 1023.4S
PORT WASHINGTON  1700   38      60/  8/ 10 1023.0S
MILWAUKEE LAKESH 1700   36      50/  7/  8   N/A
KENOSHA   LAKESH 1800   37      40/  8/  9   N/A
$$

TC  - TEMPERATURE IN CELSIUS
VSB - VISIBILITY IN STATUTE MILES
WCI - WIND CHILL INDEX
HX  - HEAT INDEX




USA.gov is the U.S. government's official web portal to all federal, state and local government web resources and services.